| time (UTC) | temp F | wind direction | speed MPH | gust MPH | rain 1hr in | rain 24hr in | rain mn in | humidity % | barometer mb |
| 20260905080545 | 58 | 146 | 1.0 | 2.0 | 0.00 | 0.01 | 0.00 | 93 | 1009.9 |
| 20260905080134 | 58 | 146 | 1.0 | 2.0 | 0.00 | 0.01 | 0.00 | 93 | 1010.0 |
| 20260905075544 | 58 | 146 | 1.0 | 2.0 | 0.00 | 0.01 | 0.00 | 93 | 1009.9 |
| 20260905075044 | 58 | 146 | 1.0 | 2.0 | 0.00 | 0.01 | 0.00 | 93 | 1010.0 |
| 20260905074556 | 58 | 146 | 1.0 | 4.0 | 0.00 | 0.01 | 0.00 | 92 | 1010.0 |
| 20260905074047 | 58 | 146 | 0.0 | 4.0 | 0.00 | 0.01 | 0.00 | 92 | 1010.0 |
| 20260905073546 | 58 | 153 | 1.0 | 3.0 | 0.00 | 0.01 | 0.00 | 92 | 1009.9 |
| 20260905073059 | 58 | 154 | 1.0 | 3.0 | 0.00 | 0.01 | 0.00 | 93 | 1010.1 |
| 20260905072549 | 58 | 328 | 1.0 | 2.0 | 0.00 | 0.01 | 0.00 | 93 | 1010.1 |
| 20260905072044 | 58 | 338 | 1.0 | 2.0 | 0.00 | 0.01 | 0.00 | 93 | 1010.1 |
| 20260905071606 | 58 | 335 | 1.0 | 2.0 | 0.00 | 0.01 | 0.00 | 92 | 1010.2 |
| 20260905071045 | 58 | 338 | 1.0 | 2.0 | 0.00 | 0.01 | 0.00 | 92 | 1010.1 |
| 20260905070545 | 58 | 27 | 1.0 | 2.0 | 0.00 | 0.01 | 0.00 | 92 | 1010.3 |
| 20260905070058 | 58 | 44 | 0.0 | 2.0 | 0.00 | 0.01 | 0.00 | 92 | 1010.2 |
| 20260905065545 | 58 | 44 | 0.0 | 2.0 | 0.00 | 0.01 | 0.00 | 92 | 1010.4 |
| 20260905065046 | 58 | 342 | 1.0 | 2.0 | 0.00 | 0.01 | 0.00 | 92 | 1010.6 |
| 20260905064605 | 58 | 257 | 0.0 | 1.0 | 0.00 | 0.01 | 0.00 | 92 | 1010.5 |
| 20260905064045 | 58 | 0 | 0.0 | 1.0 | 0.00 | 0.01 | 0.00 | 92 | 1010.4 |
| 20260905063546 | 58 | 233 | 0.0 | 2.0 | 0.00 | 0.01 | 0.00 | 92 | 1010.5 |
| 20260905063057 | 58 | 226 | 0.0 | 3.0 | 0.00 | 0.01 | 0.00 | 92 | 1010.5 |
| 20260905062544 | 58 | 0 | 0.0 | 3.0 | 0.00 | 0.01 | 0.00 | 92 | 1010.5 |
| 20260905062045 | 58 | 0 | 1.0 | 3.0 | 0.00 | 0.01 | 0.00 | 93 | 1010.4 |
| 20260905061608 | 58 | 289 | 0.0 | 2.0 | 0.00 | 0.01 | 0.00 | 93 | 1010.4 |
| 20260905061045 | 58 | 0 | 0.0 | 2.0 | 0.00 | 0.01 | 0.00 | 93 | 1010.3 |
| 20260905060545 | 58 | 0 | 0.0 | 3.0 | 0.00 | 0.01 | 0.00 | 93 | 1010.4 |
| 20260905060109 | 58 | 0 | 0.0 | 3.0 | 0.00 | 0.01 | 0.00 | 93 | 1010.4 |
| 20260905055550 | 58 | 65 | 0.0 | 1.0 | 0.00 | 0.01 | 0.00 | 93 | 1010.4 |
| 20260905055044 | 58 | 0 | 0.0 | 1.0 | 0.00 | 0.01 | 0.00 | 92 | 1010.4 |
| 20260905054620 | 59 | 0 | 0.0 | 1.0 | 0.00 | 0.01 | 0.00 | 92 | 1010.5 |
| 20260905054047 | 59 | 0 | 0.0 | 2.0 | 0.00 | 0.01 | 0.00 | 92 | 1010.4 |
| 20260905053551 | 59 | 0 | 0.0 | 3.0 | 0.00 | 0.01 | 0.00 | 92 | 1010.3 |
| 20260905053111 | 59 | 0 | 0.0 | 3.0 | 0.00 | 0.01 | 0.00 | 92 | 1010.4 |
| 20260905052547 | 59 | 322 | 0.0 | 2.0 | 0.00 | 0.01 | 0.00 | 92 | 1010.5 |
| 20260905052047 | 59 | 349 | 0.0 | 2.0 | 0.00 | 0.01 | 0.00 | 92 | 1010.4 |
| 20260905051602 | 59 | 352 | 0.0 | 5.0 | 0.00 | 0.01 | 0.00 | 91 | 1010.4 |
| 20260905051044 | 59 | 360 | 0.0 | 5.0 | 0.00 | 0.01 | 0.00 | 91 | 1010.6 |
| 20260905050545 | 59 | 0 | 0.0 | 2.0 | 0.00 | 0.01 | 0.00 | 91 | 1010.6 |
| 20260905050059 | 59 | 63 | 0.0 | 2.0 | 0.00 | 0.01 | 0.00 | 92 | 1010.6 |
| 20260905045546 | 59 | 0 | 0.0 | 2.0 | 0.00 | 0.01 | 0.00 | 92 | 1010.7 |
| 20260905045044 | 59 | 72 | 0.0 | 1.0 | 0.00 | 0.01 | 0.00 | 92 | 1010.7 |
| 20260905044606 | 59 | 0 | 0.0 | 1.0 | 0.00 | 0.01 | 0.00 | 92 | 1010.8 |
| 20260905044045 | 59 | 0 | 0.0 | 1.0 | 0.00 | 0.01 | 0.00 | 92 | 1010.8 |
| 20260905043545 | 59 | 0 | 0.0 | 2.0 | 0.00 | 0.01 | 0.00 | 92 | 1010.9 |
| 20260905043111 | 59 | 0 | 0.0 | 3.0 | 0.00 | 0.01 | 0.00 | 92 | 1010.9 |
| 20260905042544 | 59 | 0 | 0.0 | 3.0 | 0.00 | 0.01 | 0.00 | 92 | 1010.8 |
| 20260905042045 | 59 | 131 | 0.0 | 1.0 | 0.00 | 0.01 | 0.00 | 92 | 1010.9 |
| 20260905041554 | 59 | 0 | 0.0 | 1.0 | 0.00 | 0.01 | 0.00 | 92 | 1010.8 |
| 20260905041048 | 59 | 136 | 0.0 | 2.0 | 0.00 | 0.01 | 0.00 | 92 | 1010.9 |
| 20260905040546 | 59 | 88 | 0.0 | 2.0 | 0.00 | 0.01 | 0.00 | 93 | 1010.8 |
| 20260905040059 | 59 | 95 | 0.0 | 1.0 | 0.00 | 0.01 | 0.00 | 93 | 1010.9 |
| 20260905035547 | 59 | 101 | 0.0 | 1.0 | 0.00 | 0.01 | 0.01 | 93 | 1010.9 |
| 20260905035046 | 59 | 0 | 0.0 | 1.0 | 0.00 | 0.01 | 0.01 | 93 | 1010.8 |
| 20260905034602 | 58 | 0 | 0.0 | 1.0 | 0.00 | 0.01 | 0.01 | 93 | 1010.8 |
| 20260905034046 | 58 | 106 | 0.0 | 1.0 | 0.00 | 0.01 | 0.01 | 93 | 1010.8 |
| 20260905033544 | 58 | 106 | 0.0 | 1.0 | 0.00 | 0.01 | 0.01 | 92 | 1010.7 |
| 20260905033057 | 59 | 0 | 0.0 | 1.0 | 0.00 | 0.01 | 0.01 | 92 | 1010.8 |
| 20260905032548 | 59 | 0 | 0.0 | 0.0 | 0.00 | 0.01 | 0.01 | 92 | 1010.8 |
| 20260905032044 | 59 | 0 | 0.0 | 1.0 | 0.00 | 0.01 | 0.01 | 91 | 1010.8 |
| 20260905031557 | 59 | 0 | 0.0 | 1.0 | 0.00 | 0.01 | 0.01 | 91 | 1010.8 |
| 20260905031050 | 59 | 0 | 0.0 | 1.0 | 0.00 | 0.01 | 0.01 | 91 | 1010.8 |
| 20260905030544 | 59 | 0 | 0.0 | 1.0 | 0.00 | 0.01 | 0.01 | 91 | 1010.8 |
| 20260905030104 | 60 | 0 | 0.0 | 1.0 | 0.00 | 0.01 | 0.01 | 91 | 1010.8 |
| 20260905025545 | 60 | 0 | 0.0 | 2.0 | 0.00 | 0.01 | 0.01 | 91 | 1010.9 |
| 20260905025044 | 60 | 0 | 0.0 | 3.0 | 0.00 | 0.01 | 0.01 | 91 | 1011.1 |
| 20260905024557 | 60 | 55 | 0.0 | 3.0 | 0.00 | 0.01 | 0.01 | 90 | 1011.2 |
| 20260905024046 | 60 | 57 | 0.0 | 2.0 | 0.00 | 0.01 | 0.01 | 91 | 1011.2 |
| 20260905023546 | 60 | 19 | 0.0 | 2.0 | 0.00 | 0.01 | 0.01 | 90 | 1011.3 |
| 20260905023059 | 60 | 18 | 0.0 | 2.0 | 0.00 | 0.01 | 0.01 | 90 | 1011.1 |
| 20260905022544 | 60 | 18 | 0.0 | 1.0 | 0.00 | 0.01 | 0.01 | 90 | 1011.1 |
| 20260905022046 | 60 | 0 | 0.0 | 1.0 | 0.00 | 0.01 | 0.01 | 90 | 1011.2 |
| 20260905021559 | 60 | 0 | 0.0 | 2.0 | 0.00 | 0.01 | 0.01 | 90 | 1011.4 |
| 20260905021048 | 60 | 0 | 0.0 | 2.0 | 0.00 | 0.01 | 0.01 | 90 | 1011.4 |
| 20260905020549 | 60 | 352 | 0.0 | 1.0 | 0.00 | 0.01 | 0.01 | 89 | 1011.4 |
| 20260905015547 | 61 | 0 | 0.0 | 1.0 | 0.00 | 0.01 | 0.01 | 89 | 1011.5 |
| 20260905015044 | 61 | 352 | 0.0 | 1.0 | 0.00 | 0.01 | 0.01 | 89 | 1011.3 |
| 20260905014556 | 61 | 352 | 0.0 | 2.0 | 0.00 | 0.01 | 0.01 | 88 | 1011.3 |
| 20260905014046 | 61 | 352 | 1.0 | 2.0 | 0.00 | 0.01 | 0.01 | 88 | 1011.3 |
| 20260905013545 | 61 | 100 | 0.0 | 2.0 | 0.00 | 0.01 | 0.01 | 87 | 1011.3 |
| 20260905013102 | 61 | 100 | 0.0 | 2.0 | 0.00 | 0.01 | 0.01 | 87 | 1011.4 |
| 20260905012544 | 61 | 100 | 1.0 | 2.0 | 0.00 | 0.01 | 0.01 | 87 | 1011.4 |
| 20260905012045 | 61 | 98 | 0.0 | 2.0 | 0.00 | 0.01 | 0.01 | 87 | 1011.3 |
| 20260905011619 | 61 | 99 | 0.0 | 2.0 | 0.00 | 0.01 | 0.01 | 87 | 1011.3 |
| 20260905011046 | 61 | 99 | 0.0 | 1.0 | 0.00 | 0.01 | 0.01 | 87 | 1011.4 |
| 20260905010546 | 61 | 100 | 0.0 | 1.0 | 0.00 | 0.01 | 0.01 | 87 | 1011.5 |
| 20260905010100 | 61 | 101 | 0.0 | 1.0 | 0.00 | 0.01 | 0.01 | 88 | 1011.6 |
| 20260905005545 | 61 | 101 | 0.0 | 2.0 | 0.00 | 0.01 | 0.01 | 88 | 1011.6 |
| 20260905005045 | 61 | 102 | 0.0 | 2.0 | 0.00 | 0.01 | 0.01 | 88 | 1011.6 |
| 20260905004600 | 61 | 0 | 0.0 | 2.0 | 0.00 | 0.01 | 0.01 | 88 | 1011.5 |
| 20260905004044 | 60 | 103 | 0.0 | 2.0 | 0.00 | 0.01 | 0.01 | 90 | 1011.6 |
| 20260905003544 | 60 | 103 | 0.0 | 2.0 | 0.00 | 0.01 | 0.01 | 90 | 1011.6 |
| 20260905003056 | 60 | 0 | 0.0 | 1.0 | 0.00 | 0.01 | 0.01 | 90 | 1011.4 |
| 20260905002545 | 60 | 0 | 0.0 | 1.0 | 0.00 | 0.01 | 0.01 | 90 | 1011.3 |
| 20260905002044 | 60 | 0 | 0.0 | 0.0 | 0.00 | 0.01 | 0.01 | 90 | 1011.3 |
| 20260905001607 | 61 | 0 | 0.0 | 0.0 | 0.00 | 0.01 | 0.01 | 90 | 1011.1 |
| 20260905001044 | 61 | 0 | 0.0 | 0.0 | 0.00 | 0.01 | 0.01 | 90 | 1011.2 |
| 20260905000545 | 61 | 0 | 0.0 | 0.0 | 0.00 | 0.01 | 0.01 | 89 | 1011.1 |
| 20260905000103 | 61 | 0 | 0.0 | 0.0 | 0.00 | 0.01 | 0.01 | 88 | 1010.9 |
| 20260904235545 | 61 | 0 | 0.0 | 0.0 | 0.00 | 0.01 | 0.01 | 88 | 1010.9 |
| 20260904235044 | 62 | 0 | 0.0 | 0.0 | 0.00 | 0.01 | 0.01 | 87 | 1010.8 |
| 20260904234557 | 62 | 0 | 0.0 | 3.0 | 0.00 | 0.01 | 0.01 | 87 | 1010.7 |
| 20260904234044 | 62 | 0 | 0.0 | 3.0 | 0.00 | 0.01 | 0.01 | 86 | 1010.6 |
| 20260904233546 | 62 | 88 | 0.0 | 4.0 | 0.00 | 0.01 | 0.01 | 86 | 1010.7 |
| 20260904233106 | 62 | 0 | 0.0 | 4.0 | 0.00 | 0.01 | 0.01 | 87 | 1010.7 |
| 20260904232544 | 62 | 283 | 0.0 | 4.0 | 0.00 | 0.01 | 0.01 | 87 | 1010.8 |
| 20260904232045 | 63 | 105 | 1.0 | 4.0 | 0.00 | 0.01 | 0.01 | 85 | 1010.9 |
| 20260904231603 | 63 | 127 | 1.0 | 3.0 | 0.00 | 0.01 | 0.01 | 84 | 1011.1 |
| 20260904231046 | 64 | 316 | 1.0 | 3.0 | 0.00 | 0.01 | 0.01 | 83 | 1010.9 |
| 20260904230545 | 64 | 334 | 1.0 | 3.0 | 0.00 | 0.01 | 0.01 | 83 | 1010.9 |
| 20260904230059 | 64 | 290 | 0.0 | 12.0 | 0.00 | 0.01 | 0.01 | 82 | 1011.0 |
| 20260904225545 | 64 | 290 | 1.0 | 12.0 | 0.00 | 0.01 | 0.01 | 82 | 1010.9 |
| 20260904225044 | 65 | 146 | 0.0 | 4.0 | 0.00 | 0.01 | 0.01 | 80 | 1010.7 |
| 20260904224559 | 65 | 0 | 0.0 | 4.0 | 0.00 | 0.01 | 0.01 | 81 | 1010.8 |
| 20260904224044 | 65 | 269 | 1.0 | 4.0 | 0.00 | 0.01 | 0.01 | 80 | 1010.8 |
| 20260904223545 | 65 | 298 | 0.0 | 3.0 | 0.00 | 0.01 | 0.01 | 81 | 1010.8 |
| 20260904223101 | 65 | 309 | 0.0 | 3.0 | 0.00 | 0.01 | 0.01 | 79 | 1010.8 |
| 20260904222544 | 65 | 0 | 0.0 | 2.0 | 0.00 | 0.01 | 0.01 | 79 | 1010.7 |
| 20260904222044 | 66 | 0 | 0.0 | 2.0 | 0.00 | 0.01 | 0.01 | 80 | 1010.6 |
| 20260904221557 | 66 | 317 | 0.0 | 2.0 | 0.00 | 0.01 | 0.01 | 77 | 1010.7 |
| 20260904221045 | 66 | 316 | 0.0 | 4.0 | 0.00 | 0.01 | 0.01 | 77 | 1010.6 |
| 20260904220545 | 67 | 331 | 1.0 | 4.0 | 0.00 | 0.01 | 0.01 | 75 | 1010.6 |
| 20260904220109 | 67 | 131 | 1.0 | 4.0 | 0.00 | 0.01 | 0.01 | 75 | 1010.6 |
| 20260904215544 | 67 | 262 | 1.0 | 4.0 | 0.00 | 0.01 | 0.01 | 74 | 1010.6 |
| 20260904215044 | 67 | 60 | 1.0 | 4.0 | 0.00 | 0.01 | 0.01 | 75 | 1010.6 |
| 20260904214602 | 68 | 326 | 1.0 | 4.0 | 0.00 | 0.01 | 0.01 | 75 | 1010.4 |
| 20260904214047 | 68 | 34 | 0.0 | 2.0 | 0.00 | 0.01 | 0.01 | 77 | 1010.6 |
| 20260904213544 | 68 | 67 | 1.0 | 2.0 | 0.00 | 0.01 | 0.01 | 76 | 1010.6 |
| 20260904213104 | 68 | 83 | 0.0 | 2.0 | 0.00 | 0.01 | 0.01 | 75 | 1010.6 |
| 20260904212545 | 68 | 83 | 0.0 | 4.0 | 0.00 | 0.01 | 0.01 | 75 | 1010.7 |
| 20260904212044 | 68 | 339 | 1.0 | 4.0 | 0.00 | 0.01 | 0.01 | 74 | 1010.6 |
| 20260904211601 | 68 | 342 | 0.0 | 5.0 | 0.00 | 0.01 | 0.01 | 74 | 1010.7 |
| 20260904211045 | 68 | 316 | 1.0 | 5.0 | 0.00 | 0.01 | 0.01 | 78 | 1010.7 |
| 20260904210548 | 68 | 0 | 1.0 | 3.0 | 0.00 | 0.01 | 0.01 | 77 | 1010.7 |
| 20260904210105 | 68 | 279 | 1.0 | 3.0 | 0.00 | 0.01 | 0.01 | 76 | 1010.6 |
| 20260904205548 | 68 | 301 | 1.0 | 2.0 | 0.00 | 0.01 | 0.01 | 74 | 1010.7 |
| 20260904205044 | 68 | 269 | 0.0 | 4.0 | 0.00 | 0.01 | 0.01 | 77 | 1010.7 |
| 20260904204557 | 69 | 12 | 0.0 | 4.0 | 0.00 | 0.01 | 0.01 | 78 | 1010.7 |
| 20260904204044 | 68 | 342 | 1.0 | 4.0 | 0.00 | 0.01 | 0.01 | 77 | 1010.6 |
| 20260904203544 | 68 | 314 | 0.0 | 1.0 | 0.00 | 0.01 | 0.01 | 77 | 1010.7 |
| 20260904203108 | 68 | 0 | 0.0 | 2.0 | 0.00 | 0.01 | 0.01 | 77 | 1010.8 |
| 20260904202544 | 68 | 63 | 0.0 | 2.0 | 0.00 | 0.01 | 0.01 | 76 | 1010.7 |
| 20260904202045 | 68 | 96 | 1.0 | 3.0 | 0.00 | 0.01 | 0.01 | 77 | 1010.7 |
| 20260904201612 | 68 | 304 | 0.0 | 3.0 | 0.00 | 0.01 | 0.01 | 78 | 1010.7 |
| 20260904201045 | 68 | 304 | 0.0 | 4.0 | 0.00 | 0.01 | 0.01 | 75 | 1010.8 |
| 20260904200545 | 68 | 0 | 1.0 | 5.0 | 0.00 | 0.01 | 0.01 | 78 | 1010.8 |
| 20260904200058 | 69 | 113 | 1.0 | 5.0 | 0.00 | 0.01 | 0.01 | 75 | 1010.9 |
| 20260904195546 | 69 | 298 | 0.0 | 2.0 | 0.00 | 0.01 | 0.01 | 76 | 1010.8 |
| 20260904195048 | 69 | 298 | 0.0 | 2.0 | 0.00 | 0.01 | 0.01 | 75 | 1010.8 |
| 20260904194556 | 69 | 29 | 1.0 | 4.0 | 0.00 | 0.01 | 0.01 | 75 | 1010.8 |
| 20260904194045 | 68 | 323 | 1.0 | 4.0 | 0.00 | 0.01 | 0.01 | 76 | 1010.8 |
| 20260904193545 | 68 | 323 | 1.0 | 4.0 | 0.00 | 0.01 | 0.01 | 74 | 1010.7 |
| 20260904193101 | 69 | 12 | 1.0 | 4.0 | 0.00 | 0.01 | 0.01 | 76 | 1010.8 |
| 20260904192544 | 69 | 310 | 1.0 | 5.0 | 0.00 | 0.01 | 0.01 | 76 | 1010.8 |
| 20260904192044 | 69 | 87 | 1.0 | 5.0 | 0.00 | 0.01 | 0.01 | 73 | 1010.7 |
| 20260904191554 | 69 | 11 | 1.0 | 5.0 | 0.00 | 0.01 | 0.01 | 70 | 1010.9 |
| 20260904191045 | 70 | 314 | 1.0 | 3.0 | 0.00 | 0.01 | 0.01 | 72 | 1010.9 |
| 20260904190545 | 70 | 278 | 0.0 | 3.0 | 0.00 | 0.01 | 0.01 | 72 | 1010.9 |
| 20260904190057 | 70 | 68 | 0.0 | 3.0 | 0.00 | 0.01 | 0.01 | 71 | 1011.0 |
| 20260904185545 | 70 | 309 | 0.0 | 3.0 | 0.00 | 0.01 | 0.01 | 72 | 1011.1 |
| 20260904185049 | 70 | 315 | 1.0 | 3.0 | 0.00 | 0.01 | 0.01 | 72 | 1011.2 |
| 20260904184600 | 71 | 292 | 1.0 | 5.0 | 0.00 | 0.01 | 0.01 | 70 | 1011.0 |
| 20260904184045 | 72 | 304 | 2.0 | 5.0 | 0.00 | 0.01 | 0.01 | 67 | 1011.1 |
| 20260904183546 | 73 | 310 | 1.0 | 4.0 | 0.00 | 0.01 | 0.01 | 71 | 1010.9 |
| 20260904183107 | 73 | 299 | 1.0 | 4.0 | 0.00 | 0.01 | 0.01 | 68 | 1010.9 |
| 20260904182545 | 74 | 353 | 2.0 | 4.0 | 0.00 | 0.01 | 0.01 | 63 | 1010.9 |
| 20260904182044 | 75 | 293 | 1.0 | 5.0 | 0.00 | 0.01 | 0.01 | 64 | 1011.0 |
| 20260904181559 | 75 | 267 | 1.0 | 5.0 | 0.00 | 0.01 | 0.01 | 66 | 1010.9 |
| 20260904181048 | 75 | 0 | 1.0 | 5.0 | 0.00 | 0.01 | 0.01 | 64 | 1010.8 |
| 20260904180545 | 73 | 248 | 1.0 | 6.0 | 0.00 | 0.01 | 0.01 | 76 | 1010.9 |
| 20260904180107 | 71 | 303 | 1.0 | 6.0 | 0.00 | 0.01 | 0.01 | 68 | 1010.9 |
| 20260904175546 | 70 | 30 | 1.0 | 6.0 | 0.00 | 0.01 | 0.01 | 67 | 1010.9 |
| 20260904175044 | 70 | 0 | 1.0 | 4.0 | 0.00 | 0.01 | 0.01 | 71 | 1011.1 |
| 20260904174608 | 71 | 20 | 1.0 | 3.0 | 0.00 | 0.01 | 0.01 | 72 | 1011.1 |
| 20260904174045 | 71 | 263 | 1.0 | 2.0 | 0.00 | 0.01 | 0.01 | 69 | 1011.2 |
| 20260904173546 | 72 | 251 | 1.0 | 4.0 | 0.00 | 0.01 | 0.01 | 66 | 1011.0 |
| 20260904173116 | 72 | 307 | 1.0 | 7.0 | 0.00 | 0.01 | 0.01 | 64 | 1010.9 |
| 20260904172546 | 73 | 32 | 1.0 | 7.0 | 0.00 | 0.01 | 0.01 | 64 | 1011.0 |
| 20260904172044 | 73 | 44 | 1.0 | 5.0 | 0.00 | 0.01 | 0.01 | 66 | 1010.9 |
| 20260904171606 | 73 | 195 | 0.0 | 2.0 | 0.00 | 0.01 | 0.01 | 71 | 1010.9 |
| 20260904171044 | 72 | 0 | 0.0 | 3.0 | 0.00 | 0.01 | 0.01 | 72 | 1011.1 |
| 20260904170545 | 72 | 202 | 1.0 | 3.0 | 0.00 | 0.01 | 0.01 | 69 | 1011.0 |
| 20260904170108 | 70 | 309 | 1.0 | 7.0 | 0.00 | 0.01 | 0.01 | 71 | 1011.1 |
| 20260904165546 | 70 | 312 | 2.0 | 7.0 | 0.00 | 0.01 | 0.01 | 68 | 1011.2 |
| 20260904165046 | 71 | 123 | 2.0 | 7.0 | 0.00 | 0.01 | 0.01 | 70 | 1011.2 |
| 20260904164613 | 70 | 100 | 0.0 | 10.0 | 0.00 | 0.01 | 0.01 | 76 | 1011.1 |
| 20260904164044 | 70 | 302 | 2.0 | 10.0 | 0.00 | 0.01 | 0.01 | 74 | 1011.3 |
| 20260904163542 | 71 | 110 | 2.0 | 6.0 | 0.00 | 0.01 | 0.01 | 70 | 1011.3 |
| 20260904163101 | 72 | 322 | 2.0 | 6.0 | 0.00 | 0.01 | 0.01 | 65 | 1011.1 |
| 20260904162546 | 72 | 325 | 2.0 | 6.0 | 0.00 | 0.01 | 0.01 | 68 | 1011.2 |
| 20260904162046 | 72 | 134 | 2.0 | 5.0 | 0.00 | 0.01 | 0.01 | 68 | 1011.2 |
| 20260904161559 | 72 | 347 | 2.0 | 5.0 | 0.00 | 0.01 | 0.01 | 70 | 1011.3 |
| 20260904161046 | 73 | 323 | 1.0 | 4.0 | 0.00 | 0.01 | 0.01 | 67 | 1011.3 |
| 20260904160545 | 72 | 18 | 2.0 | 5.0 | 0.00 | 0.01 | 0.01 | 73 | 1011.3 |
| 20260904160108 | 72 | 320 | 1.0 | 5.0 | 0.00 | 0.01 | 0.01 | 79 | 1011.3 |
| 20260904155545 | 71 | 229 | 2.0 | 5.0 | 0.00 | 0.01 | 0.01 | 72 | 1011.4 |
| 20260904155045 | 71 | 100 | 1.0 | 5.0 | 0.00 | 0.01 | 0.01 | 73 | 1011.4 |
| 20260904154604 | 71 | 352 | 1.0 | 5.0 | 0.00 | 0.01 | 0.01 | 78 | 1011.5 |
| 20260904154044 | 70 | 309 | 1.0 | 4.0 | 0.00 | 0.01 | 0.01 | 79 | 1011.5 |
| 20260904153544 | 69 | 28 | 1.0 | 4.0 | 0.00 | 0.01 | 0.01 | 73 | 1011.5 |
| 20260904153104 | 69 | 206 | 1.0 | 5.0 | 0.00 | 0.01 | 0.01 | 72 | 1011.6 |
| 20260904152544 | 69 | 309 | 1.0 | 5.0 | 0.00 | 0.01 | 0.01 | 78 | 1011.5 |
| 20260904152049 | 68 | 299 | 1.0 | 5.0 | 0.00 | 0.01 | 0.01 | 73 | 1011.5 |
| 20260904151557 | 68 | 295 | 1.0 | 5.0 | 0.00 | 0.01 | 0.01 | 81 | 1011.5 |
| 20260904151045 | 68 | 336 | 1.0 | 4.0 | 0.00 | 0.01 | 0.01 | 79 | 1011.5 |
| 20260904150545 | 67 | 289 | 1.0 | 4.0 | 0.00 | 0.01 | 0.01 | 79 | 1011.7 |
| 20260904145545 | 67 | 302 | 1.0 | 4.0 | 0.00 | 0.01 | 0.01 | 80 | 1011.6 |
| 20260904145045 | 67 | 260 | 0.0 | 2.0 | 0.00 | 0.01 | 0.01 | 85 | 1011.5 |
| 20260904144613 | 67 | 299 | 1.0 | 3.0 | 0.00 | 0.01 | 0.01 | 84 | 1011.6 |
| 20260904144045 | 67 | 110 | 1.0 | 3.0 | 0.00 | 0.01 | 0.01 | 85 | 1011.6 |
| 20260904143548 | 66 | 324 | 0.0 | 3.0 | 0.00 | 0.01 | 0.01 | 83 | 1011.5 |
| 20260904143102 | 66 | 322 | 0.0 | 2.0 | 0.00 | 0.01 | 0.01 | 87 | 1011.5 |
| 20260904142545 | 66 | 11 | 0.0 | 2.0 | 0.00 | 0.01 | 0.01 | 86 | 1011.4 |
| 20260904142045 | 65 | 30 | 1.0 | 3.0 | 0.00 | 0.01 | 0.01 | 86 | 1011.4 |
| 20260904141604 | 65 | 327 | 0.0 | 3.0 | 0.00 | 0.01 | 0.01 | 88 | 1011.5 |
| 20260904141044 | 65 | 0 | 0.0 | 1.0 | 0.00 | 0.01 | 0.01 | 88 | 1011.6 |
| 20260904140544 | 65 | 0 | 0.0 | 1.0 | 0.00 | 0.01 | 0.01 | 89 | 1011.6 |
| 20260904140106 | 65 | 75 | 0.0 | 2.0 | 0.00 | 0.01 | 0.01 | 89 | 1011.5 |
| 20260904135546 | 65 | 0 | 1.0 | 2.0 | 0.00 | 0.01 | 0.01 | 87 | 1011.5 |
| 20260904135046 | 65 | 0 | 0.0 | 2.0 | 0.00 | 0.01 | 0.01 | 89 | 1011.4 |
| 20260904134608 | 64 | 0 | 0.0 | 3.0 | 0.00 | 0.01 | 0.01 | 90 | 1011.5 |
| 20260904134045 | 64 | 0 | 0.0 | 3.0 | 0.00 | 0.01 | 0.01 | 90 | 1011.4 |
| 20260904133545 | 63 | 17 | 0.0 | 3.0 | 0.00 | 0.01 | 0.01 | 88 | 1011.5 |
| 20260904133100 | 63 | 98 | 0.0 | 3.0 | 0.00 | 0.01 | 0.01 | 92 | 1011.5 |
| 20260904132545 | 63 | 0 | 0.0 | 1.0 | 0.00 | 0.01 | 0.01 | 92 | 1011.5 |
| 20260904132044 | 62 | 0 | 0.0 | 2.0 | 0.00 | 0.01 | 0.01 | 93 | 1011.4 |
| 20260904131557 | 62 | 161 | 0.0 | 2.0 | 0.00 | 0.01 | 0.01 | 93 | 1011.5 |
| 20260904131045 | 62 | 212 | 0.0 | 2.0 | 0.00 | 0.01 | 0.01 | 92 | 1011.5 |
| 20260904130544 | 61 | 0 | 0.0 | 2.0 | 0.00 | 0.01 | 0.01 | 93 | 1011.4 |
| 20260904130057 | 61 | 116 | 0.0 | 1.0 | 0.00 | 0.01 | 0.01 | 93 | 1011.3 |
| 20260904125545 | 61 | 139 | 0.0 | 2.0 | 0.00 | 0.01 | 0.01 | 93 | 1011.4 |
| 20260904125043 | 61 | 0 | 0.0 | 2.0 | 0.00 | 0.01 | 0.01 | 94 | 1011.4 |
| 20260904124603 | 61 | 140 | 0.0 | 1.0 | 0.00 | 0.01 | 0.01 | 94 | 1011.5 |
| 20260904124048 | 60 | 0 | 0.0 | 1.0 | 0.00 | 0.01 | 0.01 | 94 | 1011.5 |
| 20260904123545 | 60 | 0 | 0.0 | 1.0 | 0.00 | 0.01 | 0.01 | 95 | 1011.7 |
| 20260904123102 | 60 | 0 | 0.0 | 1.0 | 0.00 | 0.01 | 0.01 | 96 | 1011.5 |
| 20260904122545 | 60 | 0 | 0.0 | 1.0 | 0.00 | 0.01 | 0.01 | 96 | 1011.6 |
| 20260904122045 | 59 | 0 | 0.0 | 0.0 | 0.00 | 0.01 | 0.01 | 96 | 1011.6 |
| 20260904121556 | 59 | 0 | 0.0 | 0.0 | 0.00 | 0.01 | 0.01 | 96 | 1011.7 |
| 20260904121044 | 59 | 0 | 0.0 | 1.0 | 0.00 | 0.01 | 0.01 | 96 | 1011.6 |
| 20260904120547 | 59 | 0 | 0.0 | 1.0 | 0.00 | 0.01 | 0.01 | 96 | 1011.6 |
| 20260904120058 | 59 | 0 | 0.0 | 1.0 | 0.00 | 0.01 | 0.01 | 96 | 1011.6 |
| 20260904115545 | 59 | 0 | 0.0 | 0.0 | 0.00 | 0.02 | 0.01 | 96 | 1011.5 |
| 20260904115045 | 59 | 0 | 0.0 | 0.0 | 0.00 | 0.02 | 0.01 | 96 | 1011.6 |
| 20260904114558 | 59 | 0 | 0.0 | 0.0 | 0.00 | 0.02 | 0.01 | 96 | 1011.5 |
| 20260904114045 | 59 | 0 | 0.0 | 0.0 | 0.00 | 0.02 | 0.01 | 95 | 1011.5 |
| 20260904113545 | 59 | 0 | 0.0 | 0.0 | 0.00 | 0.02 | 0.01 | 95 | 1011.5 |
| 20260904113058 | 59 | 0 | 0.0 | 1.0 | 0.00 | 0.02 | 0.01 | 95 | 1011.5 |
| 20260904112542 | 60 | 0 | 0.0 | 1.0 | 0.00 | 0.02 | 0.01 | 95 | 1011.3 |
| 20260904112049 | 59 | 0 | 0.0 | 1.0 | 0.00 | 0.02 | 0.01 | 95 | 1011.3 |
| 20260904111611 | 59 | 0 | 0.0 | 1.0 | 0.00 | 0.02 | 0.01 | 95 | 1011.3 |
| 20260904111044 | 59 | 95 | 0.0 | 0.0 | 0.00 | 0.02 | 0.01 | 95 | 1011.3 |
| 20260904110546 | 59 | 0 | 0.0 | 1.0 | 0.00 | 0.02 | 0.01 | 95 | 1011.3 |
| 20260904105545 | 59 | 0 | 0.0 | 0.0 | 0.00 | 0.02 | 0.01 | 95 | 1011.2 |
| 20260904105045 | 59 | 0 | 0.0 | 0.0 | 0.00 | 0.02 | 0.01 | 96 | 1011.2 |
| 20260904104600 | 59 | 0 | 0.0 | 0.0 | 0.00 | 0.02 | 0.01 | 96 | 1011.1 |
| 20260904104044 | 59 | 0 | 0.0 | 0.0 | 0.00 | 0.02 | 0.01 | 95 | 1011.2 |
| 20260904103544 | 59 | 0 | 0.0 | 0.0 | 0.00 | 0.02 | 0.01 | 95 | 1011.2 |
| 20260904103056 | 59 | 0 | 0.0 | 0.0 | 0.00 | 0.02 | 0.01 | 94 | 1011.1 |
| 20260904102545 | 59 | 0 | 0.0 | 1.0 | 0.00 | 0.02 | 0.01 | 94 | 1011.1 |
| 20260904102044 | 60 | 0 | 0.0 | 1.0 | 0.00 | 0.02 | 0.01 | 94 | 1010.9 |
| 20260904101600 | 60 | 0 | 0.0 | 1.0 | 0.00 | 0.02 | 0.01 | 93 | 1011.0 |
| 20260904101047 | 60 | 0 | 0.0 | 1.0 | 0.00 | 0.02 | 0.01 | 94 | 1010.9 |
| 20260904100545 | 60 | 0 | 0.0 | 1.0 | 0.00 | 0.02 | 0.01 | 94 | 1010.9 |
| 20260904100103 | 60 | 0 | 0.0 | 1.0 | 0.00 | 0.02 | 0.01 | 94 | 1010.9 |
| 20260904095545 | 60 | 95 | 0.0 | 1.0 | 0.00 | 0.02 | 0.01 | 94 | 1010.9 |
| 20260904095046 | 60 | 0 | 0.0 | 1.0 | 0.00 | 0.02 | 0.01 | 94 | 1010.8 |
| 20260904094611 | 59 | 0 | 0.0 | 1.0 | 0.00 | 0.02 | 0.01 | 94 | 1010.8 |
| 20260904094044 | 59 | 95 | 0.0 | 0.0 | 0.00 | 0.02 | 0.01 | 94 | 1010.8 |
| 20260904093547 | 59 | 0 | 0.0 | 1.0 | 0.00 | 0.02 | 0.01 | 94 | 1010.8 |
| 20260904093103 | 60 | 0 | 0.0 | 1.0 | 0.01 | 0.02 | 0.01 | 94 | 1010.7 |
| 20260904092544 | 59 | 0 | 0.0 | 0.0 | 0.01 | 0.02 | 0.01 | 94 | 1010.7 |
| 20260904092043 | 59 | 0 | 0.0 | 1.0 | 0.01 | 0.02 | 0.01 | 94 | 1010.6 |
| 20260904091601 | 60 | 0 | 0.0 | 1.0 | 0.01 | 0.02 | 0.01 | 94 | 1010.6 |
| 20260904091044 | 59 | 0 | 0.0 | 1.0 | 0.01 | 0.02 | 0.01 | 94 | 1010.5 |
| 20260904090544 | 59 | 0 | 0.0 | 0.0 | 0.01 | 0.02 | 0.01 | 93 | 1010.6 |
| 20260904090101 | 59 | 0 | 0.0 | 0.0 | 0.01 | 0.02 | 0.01 | 93 | 1010.6 |
| 20260904085545 | 59 | 0 | 0.0 | 0.0 | 0.01 | 0.03 | 0.01 | 93 | 1010.5 |
| 20260904085045 | 59 | 0 | 0.0 | 0.0 | 0.01 | 0.03 | 0.01 | 93 | 1010.5 |
| 20260904084558 | 59 | 0 | 0.0 | 1.0 | 0.01 | 0.03 | 0.01 | 93 | 1010.6 |
| 20260904084046 | 59 | 0 | 0.0 | 1.0 | 0.01 | 0.03 | 0.01 | 94 | 1010.6 |
| 20260904083545 | 59 | 0 | 0.0 | 0.0 | 0.01 | 0.03 | 0.01 | 93 | 1010.7 |
| 20260904083103 | 59 | 0 | 0.0 | 0.0 | 0.00 | 0.02 | 0.00 | 93 | 1010.6 |
| 20260904082544 | 59 | 0 | 0.0 | 0.0 | 0.00 | 0.02 | 0.00 | 93 | 1010.7 |
| 20260904082040 | 59 | 0 | 0.0 | 0.0 | 0.00 | 0.02 | 0.00 | 92 | 1010.6 |
| 20260904081636 | 60 | 0 | 0.0 | 0.0 | 0.00 | 0.02 | 0.00 | 93 | 1010.6 |
| 20260904081041 | 60 | 0 | 0.0 | 0.0 | 0.00 | 0.02 | 0.00 | 93 | 1010.6 |